Date String (YYYY-MM-DD hh:mm:ss) UTC,Instrument flags,Ambient pressure (hPa),Sample flow (lpm),Bypass flow (lpm),Sample temperature (°C),Ambient temperature (°C),ASC tube jacket temperature (°C),LED temperature (°C),Box temperature (°C),Sample RH (%),Span deviation,Mass concentration (μg/m³),Mass concentration (μg/m³),Mass concentration (μg/m³)
DateTimeUTC,F1_M11,P_M11,Q1_M11,Q2_M11,T1_M11,T2_M11,T3_M11,T4_M11,T5_M11,U1_M11,ZSPAN_M11,X0_M11,X2_M11,X1_M11
2022-07-07 07:00:00,,0828.7,5.01,0.00,30.2,28.0,00.0,39.1,31.8,32.0,0000.0,0007.05,0003.44,0003.10
2022-07-07 07:01:00,,0828.8,5.00,0.00,30.2,28.1,00.0,39.0,31.8,32.1,0000.0,0006.88,0003.39,0003.04
2022-07-07 07:02:00,,0828.9,5.00,0.00,30.1,28.2,00.0,39.0,31.8,31.7,0000.0,0006.98,0003.37,0002.95
2022-07-07 07:03:00,,0829.2,4.99,0.00,30.1,28.3,00.0,39.0,31.9,31.9,0000.0,0007.29,0003.36,0002.88
2022-07-07 07:04:00,,0829.3,5.00,0.00,30.1,28.4,00.0,39.0,31.9,32.2,0000.0,0007.83,0003.34,0002.87
2022-07-07 07:05:00,,0828.9,4.99,0.00,30.1,28.5,00.0,39.0,31.9,32.3,0000.0,0007.72,0003.32,0002.85
2022-07-07 07:06:00,,0828.8,5.00,0.00,30.1,28.6,00.0,39.0,31.9,32.4,0000.0,0007.41,0003.32,0002.84
2022-07-07 07:07:00,,0828.8,5.00,0.00,30.1,28.6,00.0,39.0,31.9,32.7,0000.0,0006.74,0003.31,0002.85
2022-07-07 07:08:00,,0828.8,5.00,0.00,30.2,28.7,00.0,39.0,32.0,32.4,0000.0,0006.28,0003.29,0002.87
2022-07-07 07:09:00,,0828.8,4.99,0.00,30.2,28.8,00.0,39.0,32.0,31.9,0000.0,0006.27,0003.28,0002.87
2022-07-07 07:10:00,,0829.0,5.00,0.00,30.2,28.8,00.0,39.0,32.0,31.7,0000.0,0006.28,0003.28,0002.86
2022-07-07 07:11:00,,0828.8,5.00,0.00,30.2,28.9,00.0,39.0,32.0,31.4,0000.0,0006.34,0003.27,0002.86
2022-07-07 07:12:00,,0828.9,5.00,0.00,30.2,28.9,00.0,39.0,32.0,31.5,0000.0,0006.39,0003.26,0002.86
2022-07-07 07:13:00,,0829.0,5.00,0.00,30.2,28.9,00.0,39.0,32.1,31.8,0000.0,0006.36,0003.25,0002.90
2022-07-07 07:14:00,,0829.0,5.00,0.00,30.2,29.0,00.0,39.0,32.1,32.5,0000.0,0006.22,0003.28,0002.95
2022-07-07 07:15:00,,0829.0,5.00,0.00,30.3,29.0,00.0,39.0,32.1,33.8,0000.0,0005.94,0003.36,0003.02
2022-07-07 07:16:00,,0829.0,5.00,0.00,30.3,29.0,00.0,39.0,32.1,34.0,0000.0,0005.67,0003.44,0003.11
2022-07-07 07:17:00,,0829.1,5.00,0.00,30.3,29.1,00.0,39.0,32.1,34.3,0000.0,0006.00,0003.54,0003.16
2022-07-07 07:18:00,,0829.1,5.00,0.00,30.3,29.1,00.0,39.1,32.1,34.5,0000.0,0006.24,0003.61,0003.22
2022-07-07 07:19:00,,0829.0,4.99,0.00,30.3,29.1,00.0,39.1,32.2,34.9,0000.0,0006.49,0003.71,0003.29
2022-07-07 07:20:00,,0829.0,5.02,0.00,30.4,29.2,00.0,39.1,32.2,35.2,0000.0,0007.07,0003.85,0003.39
2022-07-07 07:21:00,,0829.0,5.01,0.00,30.6,29.2,00.0,39.1,32.4,35.0,0000.0,0007.32,0003.96,0003.47
2022-07-07 07:22:00,,0829.1,5.00,0.00,30.9,29.2,00.0,39.1,32.5,34.6,0000.0,0007.61,0004.13,0003.57
2022-07-07 07:23:00,,0829.1,4.99,0.00,31.0,29.2,00.0,39.2,32.5,34.4,0000.0,0007.99,0004.31,0003.68
2022-07-07 07:24:00,,0829.2,5.00,0.00,31.1,29.3,00.0,39.2,32.5,34.4,0000.0,0008.23,0004.48,0003.80
2022-07-07 07:25:00,,0829.2,5.00,0.00,31.1,29.3,00.0,39.3,32.5,34.5,0000.0,0008.45,0004.62,0003.90
2022-07-07 07:26:00,,0829.3,5.00,0.00,31.2,29.3,00.0,39.3,32.4,34.6,0000.0,0008.75,0004.76,0004.01
2022-07-07 07:27:00,,0829.2,5.00,0.00,31.2,29.3,00.0,39.4,32.5,34.8,0000.0,0009.78,0004.90,0004.12
2022-07-07 07:28:00,,0829.2,5.00,0.00,31.2,29.4,00.0,39.4,32.5,34.9,0000.0,0010.15,0005.01,0004.22
2022-07-07 07:29:00,,0829.1,5.01,0.00,31.2,29.4,00.0,39.5,32.5,35.0,0000.0,0010.37,0005.15,0004.34
2022-07-07 07:30:00,,0829.0,5.00,0.00,31.3,29.4,00.0,39.5,32.6,35.0,0000.0,0010.57,0005.30,0004.46
2022-07-07 07:31:00,,0829.1,5.01,0.00,31.5,28.8,00.0,39.5,32.6,34.6,0000.0,0010.67,0005.40,0004.55
2022-07-07 07:32:00,,0829.0,5.00,0.00,31.5,28.1,00.0,39.5,32.5,34.4,0000.0,0011.02,0005.55,0004.66
2022-07-07 07:33:00,,0829.0,5.00,0.00,31.5,27.8,00.0,39.5,32.4,34.5,0000.0,0011.26,0005.64,0004.76
2022-07-07 07:34:00,,0829.0,5.00,0.00,31.4,27.8,00.0,39.5,32.2,34.8,-000.3,0011.28,0005.76,0004.87
2022-07-07 07:35:00,,0829.0,5.01,0.00,31.3,27.9,00.0,39.5,32.1,35.0,-000.6,0011.59,0005.91,0004.97
2022-07-07 07:36:00,,0828.9,5.00,0.00,31.4,28.0,00.0,39.5,32.2,35.1,-000.6,0011.76,0006.03,0005.09
2022-07-07 07:37:00,,0829.0,5.01,0.00,31.5,28.1,00.0,39.6,32.3,34.8,-000.0,0011.68,0006.08,0005.16
2022-07-07 07:38:00,,0829.0,5.00,0.00,31.7,28.3,00.0,39.6,32.4,34.7,0000.4,0010.99,0006.17,0005.24
2022-07-07 07:39:00,,0828.9,5.00,0.00,31.7,28.4,00.0,39.6,32.4,34.7,0000.2,0011.17,0006.25,0005.33
2022-07-07 07:40:00,,0828.9,5.02,0.00,31.7,28.5,00.0,39.7,32.3,35.0,-000.4,0011.61,0006.38,0005.42
2022-07-07 07:41:00,,0828.9,5.00,0.00,31.8,28.6,00.0,39.7,32.4,35.0,-000.8,0012.33,0006.49,0005.50
2022-07-07 07:42:00,,0828.9,5.00,0.00,32.0,28.7,00.0,39.8,32.6,34.5,-001.1,0012.49,0006.57,0005.58
2022-07-07 07:43:00,,0828.9,5.00,0.00,32.1,28.8,00.0,39.8,32.5,34.3,-001.2,0012.47,0006.68,0005.65
2022-07-07 07:44:00,,0828.9,5.01,0.00,32.1,28.9,00.0,39.9,32.5,34.2,-001.4,0012.37,0006.75,0005.73
2022-07-07 07:45:00,,0828.9,5.00,0.00,32.1,28.9,00.0,39.9,32.5,34.3,-001.6,0012.43,0006.81,0005.81
2022-07-07 07:46:00,,0828.8,5.00,0.00,32.1,29.0,00.0,40.0,32.6,34.4,-001.4,0012.47,0006.89,0005.88
2022-07-07 07:47:00,,0828.8,5.00,0.00,32.0,29.0,00.0,40.0,32.6,34.3,-001.4,0012.52,0006.94,0005.91
2022-07-07 07:48:00,,0828.9,5.01,0.00,32.0,29.1,00.0,40.1,32.6,34.2,-001.9,0012.35,0006.92,0005.92
2022-07-07 07:49:00,,0828.9,5.01,0.00,32.0,29.1,00.0,40.1,32.6,34.2,-002.2,0012.31,0006.91,0005.93
2022-07-07 07:50:00,,0829.0,4.99,0.00,31.9,29.1,00.0,40.1,32.6,34.1,-002.0,0012.27,0006.95,0005.91
2022-07-07 07:51:00,,0829.0,4.99,0.00,31.9,29.2,00.0,40.1,32.6,34.0,-001.6,0012.05,0006.90,0005.86
2022-07-07 07:52:00,,0829.0,5.00,0.00,31.9,29.2,00.0,40.2,32.6,33.9,-001.5,0011.39,0006.81,0005.77
2022-07-07 07:53:00,,0829.1,5.00,0.00,31.8,29.2,00.0,40.2,32.6,33.8,-001.1,0011.08,0006.69,0005.67
2022-07-07 07:54:00,,0829.1,5.01,0.00,31.8,29.3,00.0,40.2,32.7,33.7,-000.9,0010.95,0006.55,0005.56
2022-07-07 07:55:00,,0829.0,4.99,0.00,31.8,29.3,00.0,40.2,32.7,33.7,-000.8,0011.15,0006.45,0005.44
2022-07-07 07:56:00,,0829.1,5.01,0.00,31.7,29.3,00.0,40.2,32.7,33.6,-000.3,0011.30,0006.30,0005.30
2022-07-07 07:57:00,,0829.0,5.00,0.00,31.7,29.3,00.0,40.2,32.7,33.6,-000.3,0010.96,0006.08,0005.15
2022-07-07 07:58:00,,0829.1,5.01,0.00,31.7,29.4,00.0,40.2,32.7,33.7,-000.9,0010.77,0005.94,0005.05
2022-07-07 07:59:00,,0829.1,4.99,0.00,31.7,29.4,00.0,40.2,32.8,33.7,-000.4,0010.71,0005.85,0004.95
